User: anonymous   Login
Location: Newark
(13.8117°N, 3.6025°W)
Time: 10:02:05
(UTC+00:00)
Language:

deb Explorer IX - Orbit

View from above orbital plane
View from above orbital plane
View from above satellite
View from above satellite

Ground track
Ground track

The orbit data is extracted from the following two-line orbital elements,

1    85U 61004C   19235.93476201 +.00001477 +00000-0 +32946-3 0  9992
2    85 038.7760 102.6713 0395754 310.8979 045.8115 14.19996181888643
Epoch (UTC): 23 August 2019 22:26:03
Eccentricity: 0.0395754
inclination: 38.7760°
perigee height: 540 km
apogee height: 1110 km
right ascension of ascending node: 102.6713°
argument of perigee: 310.8979°
revolutions per day: 14.19996181
mean anomaly at epoch: 45.8115°
orbit number at epoch: 88864

The dashed part of the orbit path shows where the satellite is in the earth's shadow,  

DLR